User: anonymous   Login
Location: Stockholm
(59.3293°N, 18.0686°E)
Time: 00:30:04
(UTC+02:00)
Language:

Hubble Space Telescope - Orbit

View from above orbital plane
View from above orbital plane
View from above satellite
View from above satellite

Ground track
Ground track

The orbit data is extracted from the following two-line orbital elements,

1 20580U 90037B   19286.07909105  .00000411  00000-0  14066-4 0  9998
2 20580  28.4686 162.3023 0002514 298.3829 210.6149 15.09279921418495
Epoch (UTC): 13 October 2019 01:53:53
Eccentricity: 0.0002514
inclination: 28.4686°
perigee height: 536 km
apogee height: 540 km
right ascension of ascending node: 162.3023°
argument of perigee: 298.3829°
revolutions per day: 15.09279921
mean anomaly at epoch: 210.6149°
orbit number at epoch: 41849

The dashed part of the orbit path shows where the satellite is in the earth's shadow,  

DLR